CZ-4B DEB (43660 NORAD) Tracking and Keplerian Element Data

This shows tracking and keplerian element data for the satellite.

Feedback or suggestion? Click here.




ElementValue
Catalog43660
NameCZ-4B DEB
Epoch Orbit402
Epoch Day326.94708059
Epoch Year2018
RAAN332.375
Inclination99.324
Eccentricity0.0012977
Argument of Perigee249.9895
Mean Anonmoly109.9875
Mean Motion13.8970833
Decay Rate1E-07
L11 43660U 18081D 18326.94708059 .00000010 00000-0 44696-4 0 9993
L22 43660 99.3240 332.3750 0012977 249.9895 109.9875 13.89708330 4020

Live tracking and technical data element details for CZ-4B DEB (NORAD 43660). CZ-4B DEB can be tracked NOW for your location showing map with azimuth and elevation plus other details from your city location.

Track the satellite on the map from your city or location and see movement details for azimuth, elevation, latitude, longitude, range, height, and movement on the map or in text.







IsCatalogInMostPopularTable: catalog: 43660, numindb: 114
Update: records affected: 1



GetName: 43660 CZ-4B DEB

Hit Count: updated at: Tue, 16 Jul 2019 14:54:46 GMT